Location: Boiro
(42.6475°N, 8.8834°W)
Time: 23:52:10
(UTC+01:00)

S-56A Canister/Altair - Pass Details

Date: 04 December 2021
Orbit: 634 x 2499 km, 38.9° (Epoch: 26 January)

Event Time Altitude Azimuth Distance (km) Brightness Sun altitude
Exits shadow 06:27:59 28° 193° (SSW) 1,315 8.6 -25.2°
Drops below altitude 10° 06:31:13 10° 148° (SSE) 2,043 10.2 -24.7°
Sets 06:33:37 0° 136° (SE) 2,912 11.3 -24.2°
